Location: Beuvrequen
(50.8014°N, 1.6652°E)
Time: 04:04:13
(UTC+00:00)

Cosmos 1626 Rocket - Pass Details

Date: 16 October 2021
Orbit: 603 x 631 km, 82.5° (Epoch: 05 December)

Event Time Altitude Azimuth Distance (km) Brightness Sun altitude
Rises 19:20:29 0° 347° (NNW) 2,882 7.3 -23.0°
Reaches altitude 10° 19:22:43 10° 345° (NNW) 1,969 6.5 -23.4°
Maximum altitude 19:27:02 67° 263° (W) 659 3.8 -24.1°
Enters shadow 19:28:14 45° 199° (SSW) 833 4.1 -24.2°
